,,Stat5,,Stat1,,Stat2,,Stat3,,Stat4,,Wind1,,Wind1,
time,status,PA1M_AVG,status,PR1M_SUM,status,RH1M_AVG,status,SR1M_AVG,status,TA1M_AVG,status,W1dAve1m,status,W1sAve1m,
2003-02-05, 00:00:00,VALID,919.551,VALID,0,VALID,82.0477,VALID,0,VALID,20.2442,VALID,115,VALID,1.82517,
2003-02-05, 00:01:00,VALID,919.551,VALID,0,VALID,82.1698,VALID,-0.0339617,VALID,20.2345,VALID,120,VALID,1.35135,
2003-02-05, 00:02:00,VALID,919.547,VALID,0,VALID,82.1736,VALID,-0.0339617,VALID,20.2283,VALID,100,VALID,1.63631,
2003-02-05, 00:03:00,VALID,919.527,VALID,0,VALID,82.1024,VALID,-0.0339617,VALID,20.2281,VALID,80,VALID,2.05859,
2003-02-05, 00:04:00,VALID,919.497,VALID,0,VALID,81.8672,VALID,0,VALID,20.2547,VALID,112,VALID,1.97402,
2003-02-05, 00:05:00,VALID,919.489,VALID,0,VALID,82.2766,VALID,0,VALID,20.2405,VALID,111,VALID,1.64732,
2003-02-05, 00:06:00,VALID,919.484,VALID,0,VALID,82.4076,VALID,-0.0509425,VALID,20.2383,VALID,118,VALID,1.5641,
2003-02-05, 00:07:00,VALID,919.478,VALID,0,VALID,82.3275,VALID,-0.0169808,VALID,20.1923,VALID,113,VALID,1.92725,
2003-02-05, 00:08:00,VALID,919.468,VALID,0,VALID,82.4699,VALID,-0.0169808,VALID,20.1963,VALID,106,VALID,1.62109,
2003-02-05, 00:09:00,VALID,919.454,VALID,0,VALID,82.5653,VALID,-0.0339617,VALID,20.1965,VALID,112,VALID,1.77097,
2003-02-05, 00:10:00,VALID,919.437,VALID,0,VALID,82.6581,VALID,-0.0169808,VALID,20.1769,VALID,97,VALID,1.83572,
2003-02-05, 00:11:00,VALID,919.426,VALID,0,VALID,82.6963,VALID,-0.0679233,VALID,20.1736,VALID,97,VALID,2.45122,
2003-02-05, 00:12:00,VALID,919.407,VALID,0,VALID,82.7191,VALID,0,VALID,20.1836,VALID,86,VALID,2.20456,
2003-02-05, 00:13:00,VALID,919.386,VALID,0,VALID,82.4114,VALID,0,VALID,20.1997,VALID,106,VALID,2.39001,
2003-02-05, 00:14:00,VALID,919.367,VALID,0,VALID,82.2181,VALID,-0.0169808,VALID,20.251,VALID,111,VALID,1.8355,
2003-02-05, 00:15:00,VALID,919.35,VALID,0,VALID,82.1825,VALID,-0.0169808,VALID,20.2698,VALID,119,VALID,2.38994,
2003-02-05, 00:16:00,VALID,919.315,VALID,0,VALID,82.3593,VALID,-0.0339617,VALID,20.2938,VALID,122,VALID,1.94812,
2003-02-05, 00:17:00,VALID,919.293,VALID,0,VALID,82.241,VALID,-0.0169808,VALID,20.2798,VALID,103,VALID,2.25,
2003-02-05, 00:18:00,VALID,919.275,VALID,0,VALID,82.3567,VALID,-0.0509425,VALID,20.2972,VALID,95,VALID,2.1033,
2003-02-05, 00:19:00,VALID,919.253,VALID,0,VALID,82.6696,VALID,-0.0339617,VALID,20.2773,VALID,92,VALID,1.6258,
2003-02-05, 00:20:00,VALID,919.271,VALID,0,VALID,82.5042,VALID,0.0679233,VALID,20.2499,VALID,95,VALID,1.68565,
2003-02-05, 00:21:00,VALID,919.246,VALID,0,VALID,82.2982,VALID,0.0679233,VALID,20.2537,VALID,111,VALID,2.51377,
2003-02-05, 00:22:00,VALID,919.208,VALID,0,VALID,82.3898,VALID,0.0509425,VALID,20.2788,VALID,115,VALID,2.0464,
2003-02-05, 00:23:00,VALID,919.189,VALID,0,VALID,82.5907,VALID,0.0339617,VALID,20.2691,VALID,90,VALID,1.27449,
2003-02-05, 00:24:00,VALID,919.178,VALID,0,VALID,82.826,VALID,0.0679233,VALID,20.2604,VALID,72,VALID,1.83861,
2003-02-05, 00:25:00,VALID,919.166,VALID,0,VALID,82.8501,VALID,0.0509425,VALID,20.2042,VALID,123,VALID,1.60547,
2003-02-05, 00:26:00,VALID,919.171,VALID,0,VALID,82.9887,VALID,0.0169808,VALID,20.2017,VALID,95,VALID,1.89412,
2003-02-05, 00:27:00,VALID,919.166,VALID,0,VALID,82.8984,VALID,0.0679233,VALID,20.1947,VALID,98,VALID,1.53289,
2003-02-05, 00:28:00,VALID,919.164,VALID,0,VALID,83.0472,VALID,0.101885,VALID,20.1813,VALID,94,VALID,2.2834,
2003-02-05, 00:29:00,VALID,919.115,VALID,0,VALID,83.0409,VALID,0.101885,VALID,20.1918,VALID,117,VALID,1.84214,
2003-02-05, 00:30:00,VALID,919.124,VALID,0,VALID,83.168,VALID,0.0679233,VALID,20.1721,VALID,100,VALID,2.35567,
2003-02-05, 00:31:00,VALID,919.1,VALID,0,VALID,83.4821,VALID,0.0849042,VALID,20.153,VALID,95,VALID,1.67866,
2003-02-05, 00:32:00,VALID,919.09,VALID,0,VALID,83.5063,VALID,0.0849042,VALID,20.1266,VALID,123,VALID,1.53653,
2003-02-05, 00:33:00,VALID,919.062,VALID,0,VALID,83.5139,VALID,0.0679233,VALID,20.1204,VALID,103,VALID,2.00701,
2003-02-05, 00:34:00,VALID,919.072,VALID,0,VALID,83.5622,VALID,0.0679233,VALID,20.1239,VALID,99,VALID,1.19813,
2003-02-05, 00:35:00,VALID,919.022,VALID,0,VALID,83.5355,VALID,0,VALID,20.1356,VALID,111,VALID,1.70374,
2003-02-05, 00:36:00,VALID,919.011,VALID,0,VALID,83.8814,VALID,-0.0169808,VALID,20.1256,VALID,106,VALID,1.69531,
2003-02-05, 00:37:00,VALID,919.007,VALID,0,VALID,83.9475,VALID,-0.0169808,VALID,20.0863,VALID,84,VALID,2.30889,
2003-02-05, 00:38:00,VALID,919.027,VALID,0,VALID,84.2374,VALID,-0.0169808,VALID,20.0704,VALID,75,VALID,1.06688,
2003-02-05, 00:39:00,VALID,919.017,VALID,0,VALID,83.9221,VALID,-0.0169808,VALID,20.0513,VALID,110,VALID,2.57232,
2003-02-05, 00:40:00,VALID,918.997,VALID,0,VALID,83.7326,VALID,0,VALID,20.0796,VALID,108,VALID,2.17628,
2003-02-05, 00:41:00,VALID,918.996,VALID,0,VALID,83.772,VALID,-0.0169808,VALID,20.1187,VALID,116,VALID,2.09312,
2003-02-05, 00:42:00,VALID,918.968,VALID,0,VALID,83.533,VALID,-0.0339617,VALID,20.1286,VALID,102,VALID,1.90625,
2003-02-05, 00:43:00,VALID,918.941,VALID,0,VALID,83.6144,VALID,0,VALID,20.1416,VALID,113,VALID,1.29839,
2003-02-05, 00:44:00,VALID,918.947,VALID,0,VALID,83.6194,VALID,0,VALID,20.1413,VALID,129,VALID,1.98806,
2003-02-05, 00:45:00,VALID,918.931,VALID,0,VALID,83.2698,VALID,0,VALID,20.1448,VALID,104,VALID,2.04063,
2003-02-05, 00:46:00,VALID,918.902,VALID,0,VALID,82.9964,VALID,0,VALID,20.1965,VALID,114,VALID,2.15646,
2003-02-05, 00:47:00,VALID,918.886,VALID,0,VALID,83.037,VALID,-0.0339617,VALID,20.2256,VALID,104,VALID,1.79507,
2003-02-05, 00:48:00,VALID,918.876,VALID,0,VALID,83.299,VALID,-0.0339617,VALID,20.242,VALID,87,VALID,1.59827,
2003-02-05, 00:49:00,VALID,918.864,VALID,0,VALID,83.5355,VALID,-0.0169808,VALID,20.1997,VALID,101,VALID,1.6755,
2003-02-05, 00:50:00,VALID,918.857,VALID,0,VALID,83.7085,VALID,-0.0339617,VALID,20.1615,VALID,108,VALID,1.12901,
2003-02-05, 00:51:00,VALID,918.84,VALID,0,VALID,83.7746,VALID,-0.0509425,VALID,20.1289,VALID,133,VALID,1.34502,
2003-02-05, 00:52:00,VALID,918.826,VALID,0,VALID,83.7987,VALID,-0.0169808,VALID,20.1159,VALID,112,VALID,1.75488,
2003-02-05, 00:53:00,VALID,918.822,VALID,0,VALID,83.772,VALID,-0.0509425,VALID,20.1194,VALID,111,VALID,1.64243,
2003-02-05, 00:54:00,VALID,918.798,VALID,0,VALID,83.5203,VALID,-0.0339617,VALID,20.113,VALID,115,VALID,1.92085,
2003-02-05, 00:55:00,VALID,918.791,VALID,0,VALID,83.4045,VALID,-0.0849042,VALID,20.1383,VALID,88,VALID,2.28716,
2003-02-05, 00:56:00,VALID,918.793,VALID,0,VALID,83.3969,VALID,-0.0339617,VALID,20.1707,VALID,112,VALID,1.57232,
2003-02-05, 00:57:00,VALID,918.782,VALID,0,VALID,83.299,VALID,-0.0509425,VALID,20.1642,VALID,106,VALID,2.054,
2003-02-05, 00:58:00,VALID,918.776,VALID,0,VALID,83.4732,VALID,-0.0679233,VALID,20.1741,VALID,96,VALID,2.02063,
2003-02-05, 00:59:00,VALID,918.771,VALID,0,VALID,83.7758,VALID,-0.0339617,VALID,20.151,VALID,117,VALID,1.5516,
2003-02-05, 01:00:00,VALID,918.756,VALID,0,VALID,83.8178,VALID,-0.0679233,VALID,20.1187,VALID,113,VALID,2.13715,
2003-02-05, 01:01:00,VALID,918.763,VALID,0,VALID,84.0607,VALID,0,VALID,20.0869,VALID,108,VALID,1.64464,
2003-02-05, 01:02:00,VALID,918.754,VALID,0,VALID,84.0022,VALID,-0.0679233,VALID,20.0772,VALID,145,VALID,1.85957,
2003-02-05, 01:03:00,VALID,918.753,VALID,0,VALID,83.6347,VALID,-0.0679233,VALID,20.0707,VALID,115,VALID,2.2058,
2003-02-05, 01:04:00,VALID,918.74,VALID,0,VALID,83.3944,VALID,-0.0509425,VALID,20.0998,VALID,115,VALID,2.2878,
2003-02-05, 01:05:00,VALID,918.735,VALID,0,VALID,82.7268,VALID,0.0339617,VALID,20.1826,VALID,101,VALID,2.54247,
2003-02-05, 01:06:00,VALID,918.725,VALID,0,VALID,82.723,VALID,0.0509425,VALID,20.2569,VALID,116,VALID,1.29527,
2003-02-05, 01:07:00,VALID,918.736,VALID,0,VALID,82.8908,VALID,0.0679233,VALID,20.2793,VALID,110,VALID,1.53331,
2003-02-05, 01:08:00,VALID,918.728,VALID,0,VALID,83.0472,VALID,0.0509425,VALID,20.2502,VALID,118,VALID,2.02428,
2003-02-05, 01:09:00,VALID,918.718,VALID,0,VALID,83.3346,VALID,0.0509425,VALID,20.2111,VALID,111,VALID,2.20813,
2003-02-05, 01:10:00,VALID,918.717,VALID,0,VALID,83.5215,VALID,0.0679233,VALID,20.1855,VALID,119,VALID,1.65118,
2003-02-05, 01:11:00,VALID,918.707,VALID,0,VALID,83.7987,VALID,0.0509425,VALID,20.1599,VALID,113,VALID,1.73965,
2003-02-05, 01:12:00,VALID,918.711,VALID,0,VALID,84.1077,VALID,0.0509425,VALID,20.1303,VALID,103,VALID,1.59013,
2003-02-05, 01:13:00,VALID,918.705,VALID,0,VALID,84.4091,VALID,0.0509425,VALID,20.0886,VALID,98,VALID,1.55859,
2003-02-05, 01:14:00,VALID,918.696,VALID,0,VALID,84.6978,VALID,0.0849042,VALID,20.0562,VALID,102,VALID,1.33965,
2003-02-05, 01:15:00,VALID,918.678,VALID,0,VALID,84.9762,VALID,0.0679233,VALID,20.0274,VALID,99,VALID,1.14103,
2003-02-05, 01:16:00,VALID,918.662,VALID,0,VALID,84.8987,VALID,0.0339617,VALID,19.9918,VALID,117,VALID,2.50254,
2003-02-05, 01:17:00,VALID,918.635,VALID,0,VALID,84.6787,VALID,0.0679233,VALID,20.0304,VALID,134,VALID,2.38345,
2003-02-05, 01:18:00,VALID,918.635,VALID,0,VALID,84.7448,VALID,0.0679233,VALID,20.0398,VALID,133,VALID,1.65173,
2003-02-05, 01:19:00,VALID,918.601,VALID,0,VALID,84.788,VALID,0.0339617,VALID,20.0694,VALID,118,VALID,1.36064,
2003-02-05, 01:20:00,VALID,918.582,VALID,0,VALID,85.1505,VALID,-0.0169808,VALID,20.0645,VALID,104,VALID,1.54121,
2003-02-05, 01:21:00,VALID,918.589,VALID,0,VALID,85.3437,VALID,-0.0169808,VALID,20.0185,VALID,93,VALID,1.74653,
2003-02-05, 01:22:00,VALID,918.577,VALID,0,VALID,85.4849,VALID,-0.0169808,VALID,19.9732,VALID,124,VALID,1.35198,
2003-02-05, 01:23:00,VALID,918.561,VALID,0,VALID,85.4544,VALID,-0.0679233,VALID,19.9705,VALID,123,VALID,1.55325,
2003-02-05, 01:24:00,VALID,918.576,VALID,0,VALID,85.6756,VALID,-0.0509425,VALID,19.9737,VALID,121,VALID,1.67543,
2003-02-05, 01:25:00,VALID,918.572,VALID,0,VALID,85.9566,VALID,-0.0509425,VALID,19.974,VALID,134,VALID,1.16715,
2003-02-05, 01:26:00,VALID,918.567,VALID,0,VALID,86.0584,VALID,-0.0849042,VALID,19.9678,VALID,148,VALID,2.20859,
2003-02-05, 01:27:00,VALID,918.543,VALID,0,VALID,86.0698,VALID,-0.0509425,VALID,19.9707,VALID,152,VALID,1.81702,
2003-02-05, 01:28:00,VALID,918.535,VALID,0,VALID,86.2529,VALID,-0.0849042,VALID,19.9777,VALID,136,VALID,1.42763,
2003-02-05, 01:29:00,VALID,918.558,VALID,0,VALID,86.2847,VALID,-0.101885,VALID,19.971,VALID,140,VALID,1.16286,
2003-02-05, 01:30:00,VALID,918.561,VALID,0,VALID,86.0762,VALID,-0.0509425,VALID,19.9675,VALID,149,VALID,2.02224,
2003-02-05, 01:31:00,VALID,918.538,VALID,0,VALID,85.8295,VALID,-0.101885,VALID,19.978,VALID,155,VALID,1.83368,
2003-02-05, 01:32:00,VALID,918.548,VALID,0,VALID,85.9656,VALID,-0.0509425,VALID,19.9966,VALID,138,VALID,1.62315,
2003-02-05, 01:33:00,VALID,918.536,VALID,0,VALID,85.9452,VALID,-0.0679233,VALID,20.0128,VALID,153,VALID,1.69082,
2003-02-05, 01:34:00,VALID,918.52,VALID,0,VALID,86.244,VALID,-0.101885,VALID,20.0063,VALID,149,VALID,2.01094,
2003-02-05, 01:35:00,VALID,918.531,VALID,0,VALID,86.4144,VALID,0.0339617,VALID,19.9856,VALID,143,VALID,2.20439,
2003-02-05, 01:36:00,VALID,918.527,VALID,0,VALID,86.567,VALID,0.0169808,VALID,19.9757,VALID,147,VALID,1.93236,
2003-02-05, 01:37:00,VALID,918.527,VALID,0,VALID,86.8722,VALID,0.0509425,VALID,19.9496,VALID,153,VALID,1.49306,
2003-02-05, 01:38:00,VALID,918.525,VALID,0,VALID,87.035,VALID,0.0169808,VALID,19.9207,VALID,149,VALID,1.10026,
2003-02-05, 01:39:00,VALID,918.526,VALID,0,VALID,86.9523,VALID,0.0169808,VALID,19.8879,VALID,134,VALID,1.60341,
2003-02-05, 01:40:00,VALID,918.53,VALID,0,VALID,87.138,VALID,0.0169808,VALID,19.8685,VALID,132,VALID,1.62768,
2003-02-05, 01:41:00,VALID,918.522,VALID,0,VALID,87.3147,VALID,0.0339617,VALID,19.8658,VALID,150,VALID,1.10337,
2003-02-05, 01:42:00,VALID,918.515,VALID,0,VALID,87.4482,VALID,0.0169808,VALID,19.8432,VALID,153,VALID,1.49457,
2003-02-05, 01:43:00,VALID,918.509,VALID,0,VALID,87.4915,VALID,0.0339617,VALID,19.8238,VALID,160,VALID,1.44552,
2003-02-05, 01:44:00,VALID,918.491,VALID,0,VALID,87.4482,VALID,0.0509425,VALID,19.8076,VALID,140,VALID,1.64679,
2003-02-05, 01:45:00,VALID,918.5,VALID,0,VALID,87.4406,VALID,0.0679233,VALID,19.8171,VALID,139,VALID,1.68483,
2003-02-05, 01:46:00,VALID,918.485,VALID,0,VALID,87.583,VALID,0.0339617,VALID,19.827,VALID,132,VALID,0.72218,
2003-02-05, 01:47:00,VALID,918.474,VALID,0,VALID,87.7369,VALID,0.101885,VALID,19.827,VALID,134,VALID,0.401242,
2003-02-05, 01:48:00,VALID,918.458,VALID,0,VALID,87.7496,VALID,0.0679233,VALID,19.8044,VALID,147,VALID,1.37159,
2003-02-05, 01:49:00,VALID,918.442,VALID,0,VALID,87.6873,VALID,0.0169808,VALID,19.7949,VALID,146,VALID,1.92948,
2003-02-05, 01:50:00,VALID,918.442,VALID,0,VALID,87.831,VALID,-0.0339617,VALID,19.7962,VALID,154,VALID,1.43691,
2003-02-05, 01:51:00,VALID,918.438,VALID,0,VALID,88.0078,VALID,-0.0169808,VALID,19.779,VALID,143,VALID,1.16268,
2003-02-05, 01:52:00,VALID,918.441,VALID,0,VALID,87.9721,VALID,0,VALID,19.7735,VALID,140,VALID,1.41953,
2003-02-05, 01:53:00,VALID,918.431,VALID,0,VALID,88.0904,VALID,-0.0169808,VALID,19.7606,VALID,137,VALID,0.91266,
2003-02-05, 01:54:00,VALID,918.438,VALID,0,VALID,88.2061,VALID,-0.0509425,VALID,19.7574,VALID,140,VALID,1.18976,
2003-02-05, 01:55:00,VALID,918.434,VALID,0,VALID,88.2112,VALID,-0.101885,VALID,19.7313,VALID,135,VALID,1.04831,
2003-02-05, 01:56:00,VALID,918.41,VALID,0,VALID,88.1807,VALID,-0.0339617,VALID,19.7283,VALID,152,VALID,1.38652,
2003-02-05, 01:57:00,VALID,918.382,VALID,0,VALID,87.9963,VALID,-0.0509425,VALID,19.7251,VALID,125,VALID,1.93203,
2003-02-05, 01:58:00,VALID,918.377,VALID,0,VALID,88.0103,VALID,-0.0169808,VALID,19.7372,VALID,151,VALID,1.20493,
2003-02-05, 01:59:00,VALID,918.367,VALID,0,VALID,88.0484,VALID,0,VALID,19.7402,VALID,156,VALID,1.5882,
2003-02-05, 02:00:00,VALID,918.349,VALID,0,VALID,88.2494,VALID,-0.0339617,VALID,19.7477,VALID,151,VALID,1.27784,
2003-02-05, 02:01:00,VALID,918.337,VALID,0,VALID,88.2583,VALID,-0.0339617,VALID,19.7348,VALID,149,VALID,1.61619,
2003-02-05, 02:02:00,VALID,918.327,VALID,0,VALID,88.1832,VALID,0,VALID,19.7149,VALID,147,VALID,1.9261,
2003-02-05, 02:03:00,VALID,918.322,VALID,0,VALID,87.6263,VALID,-0.0339617,VALID,19.7216,VALID,134,VALID,2.39042,
2003-02-05, 02:04:00,VALID,918.343,VALID,0,VALID,87.5156,VALID,-0.0679233,VALID,19.7735,VALID,146,VALID,2.54405,
2003-02-05, 02:05:00,VALID,918.331,VALID,0,VALID,87.4571,VALID,-0.0509425,VALID,19.8059,VALID,144,VALID,2.3342,
2003-02-05, 02:06:00,VALID,918.321,VALID,0,VALID,87.4177,VALID,-0.0339617,VALID,19.8317,VALID,141,VALID,2.27578,
2003-02-05, 02:07:00,VALID,918.317,VALID,0,VALID,87.152,VALID,-0.0509425,VALID,19.8379,VALID,147,VALID,2.61613,
2003-02-05, 02:08:00,VALID,918.311,VALID,0,VALID,87.0858,VALID,-0.0169808,VALID,19.8638,VALID,139,VALID,1.94772,
2003-02-05, 02:09:00,VALID,918.307,VALID,0,VALID,86.96,VALID,-0.0169808,VALID,19.8703,VALID,143,VALID,2.10773,
2003-02-05, 02:10:00,VALID,918.312,VALID,0,VALID,86.9002,VALID,-0.0339617,VALID,19.8733,VALID,149,VALID,2.00514,
2003-02-05, 02:11:00,VALID,918.299,VALID,0,VALID,86.8824,VALID,-0.0509425,VALID,19.8864,VALID,145,VALID,1.9389,
2003-02-05, 02:12:00,VALID,918.293,VALID,0,VALID,87.0795,VALID,0,VALID,19.8996,VALID,139,VALID,1.44975,
2003-02-05, 02:13:00,VALID,918.29,VALID,0,VALID,87.2143,VALID,-0.0169808,VALID,19.8767,VALID,143,VALID,1.41348,
2003-02-05, 02:14:00,VALID,918.291,VALID,0,VALID,87.391,VALID,0,VALID,19.8608,VALID,144,VALID,1.73638,
2003-02-05, 02:15:00,VALID,918.273,VALID,0,VALID,87.7064,VALID,-0.0169808,VALID,19.825,VALID,145,VALID,0.822163,
2003-02-05, 02:16:00,VALID,918.274,VALID,0,VALID,87.6733,VALID,-0.0339617,VALID,19.7895,VALID,127,VALID,1.35874,
2003-02-05, 02:17:00,VALID,918.261,VALID,0,VALID,87.5919,VALID,-0.0169808,VALID,19.7897,VALID,136,VALID,1.2484,
2003-02-05, 02:18:00,VALID,918.24,VALID,0,VALID,87.6085,VALID,0,VALID,19.7735,VALID,133,VALID,1.25368,
2003-02-05, 02:19:00,VALID,918.238,VALID,0,VALID,87.5296,VALID,-0.0339617,VALID,19.7701,VALID,135,VALID,2.0617,
2003-02-05, 02:20:00,VALID,918.238,VALID,0,VALID,87.419,VALID,-0.0169808,VALID,19.7765,VALID,150,VALID,1.84725,
2003-02-05, 02:21:00,VALID,918.233,VALID,0,VALID,87.227,VALID,0,VALID,19.7929,VALID,138,VALID,1.83746,
2003-02-05, 02:22:00,VALID,918.218,VALID,0,VALID,87.0935,VALID,-0.0339617,VALID,19.7994,VALID,142,VALID,1.39949,
2003-02-05, 02:23:00,VALID,918.23,VALID,0,VALID,87.0006,VALID,0,VALID,19.8153,VALID,117,VALID,1.31621,
2003-02-05, 02:24:00,VALID,918.206,VALID,0,VALID,86.979,VALID,-0.0169808,VALID,19.825,VALID,138,VALID,1.35999,
2003-02-05, 02:25:00,VALID,918.2,VALID,0,VALID,87.0846,VALID,-0.0509425,VALID,19.8248,VALID,139,VALID,1.61719,
2003-02-05, 02:26:00,VALID,918.19,VALID,0,VALID,87.4101,VALID,-0.0509425,VALID,19.8253,VALID,141,VALID,1.59836,
2003-02-05, 02:27:00,VALID,918.202,VALID,0,VALID,87.2893,VALID,-0.101885,VALID,19.7997,VALID,139,VALID,1.84115,
2003-02-05, 02:28:00,VALID,918.19,VALID,0,VALID,87.26,VALID,-0.0679233,VALID,19.7865,VALID,132,VALID,1.48808,
2003-02-05, 02:29:00,VALID,918.186,VALID,0,VALID,87.3541,VALID,-0.0169808,VALID,19.7929,VALID,134,VALID,1.32517,
2003-02-05, 02:30:00,VALID,918.181,VALID,0,VALID,87.419,VALID,-0.0509425,VALID,19.7865,VALID,135,VALID,1.93389,
2003-02-05, 02:31:00,VALID,918.172,VALID,0,VALID,87.5182,VALID,-0.0169808,VALID,19.7964,VALID,149,VALID,2.15963,
2003-02-05, 02:32:00,VALID,918.165,VALID,0,VALID,87.3948,VALID,-0.0509425,VALID,19.7835,VALID,137,VALID,1.77534,
2003-02-05, 02:33:00,VALID,918.157,VALID,0,VALID,87.5487,VALID,-0.0509425,VALID,19.7865,VALID,139,VALID,1.35137,
2003-02-05, 02:34:00,VALID,918.154,VALID,0,VALID,87.5156,VALID,-0.0679233,VALID,19.7703,VALID,126,VALID,1.59332,
2003-02-05, 02:35:00,VALID,918.143,VALID,0,VALID,87.5195,VALID,-0.0509425,VALID,19.7569,VALID,136,VALID,1.27949,
2003-02-05, 02:36:00,VALID,918.134,VALID,0,VALID,87.3809,VALID,-0.0509425,VALID,19.7479,VALID,135,VALID,1.09315,
2003-02-05, 02:37:00,VALID,918.129,VALID,0,VALID,87.3211,VALID,-0.0339617,VALID,19.7415,VALID,134,VALID,1.29902,
2003-02-05, 02:38:00,VALID,918.123,VALID,0,VALID,87.1977,VALID,-0.0339617,VALID,19.7412,VALID,142,VALID,1.67619,
2003-02-05, 02:39:00,VALID,918.111,VALID,0,VALID,86.9205,VALID,-0.0679233,VALID,19.7542,VALID,140,VALID,1.82299,
2003-02-05, 02:40:00,VALID,918.094,VALID,0,VALID,86.4271,VALID,-0.0679233,VALID,19.7902,VALID,144,VALID,2.62796,
2003-02-05, 02:41:00,VALID,918.079,VALID,0,VALID,86.5658,VALID,-0.0509425,VALID,19.8285,VALID,139,VALID,1.79648,
2003-02-05, 02:42:00,VALID,918.099,VALID,0,VALID,86.7069,VALID,-0.0679233,VALID,19.8578,VALID,135,VALID,1.47352,
2003-02-05, 02:43:00,VALID,918.076,VALID,0,VALID,86.4818,VALID,-0.0169808,VALID,19.8641,VALID,123,VALID,2.10895,
2003-02-05, 02:44:00,VALID,918.062,VALID,0,VALID,86.5747,VALID,-0.0679233,VALID,19.8802,VALID,141,VALID,1.43771,
2003-02-05, 02:45:00,VALID,918.074,VALID,0,VALID,86.6611,VALID,-0.0169808,VALID,19.8904,VALID,131,VALID,0.902462,
2003-02-05, 02:46:00,VALID,918.063,VALID,0,VALID,86.539,VALID,-0.0169808,VALID,19.8874,VALID,145,VALID,2.22183,
2003-02-05, 02:47:00,VALID,918.05,VALID,0,VALID,86.6573,VALID,-0.0679233,VALID,19.8703,VALID,136,VALID,1.73867,
2003-02-05, 02:48:00,VALID,918.039,VALID,0,VALID,86.7794,VALID,-0.0339617,VALID,19.8703,VALID,142,VALID,1.51439,
2003-02-05, 02:49:00,VALID,918.043,VALID,0,VALID,86.9091,VALID,-0.0339617,VALID,19.8738,VALID,142,VALID,1.61164,
2003-02-05, 02:50:00,VALID,918.033,VALID,0,VALID,86.7692,VALID,-0.0169808,VALID,19.8703,VALID,128,VALID,1.86819,
2003-02-05, 02:51:00,VALID,918.042,VALID,0,VALID,86.9116,VALID,-0.0169808,VALID,19.8772,VALID,136,VALID,1.52544,
2003-02-05, 02:52:00,VALID,918.023,VALID,0,VALID,87.0019,VALID,-0.0339617,VALID,19.8633,VALID,111,VALID,1.24836,
2003-02-05, 02:53:00,VALID,918.015,VALID,0,VALID,86.9943,VALID,-0.0339617,VALID,19.8646,VALID,145,VALID,2.15419,
2003-02-05, 02:54:00,VALID,918.021,VALID,0,VALID,87.0769,VALID,-0.0339617,VALID,19.8514,VALID,137,VALID,1.66816,
2003-02-05, 02:55:00,VALID,918.029,VALID,0,VALID,87.2333,VALID,-0.0679233,VALID,19.8384,VALID,138,VALID,1.18125,
2003-02-05, 02:56:00,VALID,918.028,VALID,0,VALID,87.3287,VALID,-0.0679233,VALID,19.8384,VALID,134,VALID,1.53336,
2003-02-05, 02:57:00,VALID,918.006,VALID,0,VALID,87.4139,VALID,-0.0679233,VALID,19.8253,VALID,139,VALID,1.77899,
2003-02-05, 02:58:00,VALID,917.992,VALID,0,VALID,87.4762,VALID,-0.0339617,VALID,19.8156,VALID,137,VALID,1.49371,
2003-02-05, 02:59:00,VALID,917.994,VALID,0,VALID,87.5741,VALID,-0.0509425,VALID,19.8228,VALID,136,VALID,1.28711,
2003-02-05, 03:00:00,VALID,918.001,VALID,0,VALID,87.6721,VALID,-0.0169808,VALID,19.7994,VALID,126,VALID,1.36534,
2003-02-05, 03:01:00,VALID,918.016,VALID,0,VALID,87.7153,VALID,-0.0679233,VALID,19.7927,VALID,125,VALID,1.48527,
2003-02-05, 03:02:00,VALID,918.005,VALID,0,VALID,87.9454,VALID,-0.0509425,VALID,19.7808,VALID,112,VALID,1.3139,
2003-02-05, 03:03:00,VALID,918.022,VALID,0,VALID,87.8781,VALID,-0.0169808,VALID,19.7574,VALID,120,VALID,2.01866,
2003-02-05, 03:04:00,VALID,918.007,VALID,0,VALID,87.981,VALID,-0.0169808,VALID,19.7544,VALID,121,VALID,1.08699,
2003-02-05, 03:05:00,VALID,917.996,VALID,0,VALID,88.0268,VALID,-0.101885,VALID,19.7375,VALID,144,VALID,1.57504,
2003-02-05, 03:06:00,VALID,918,VALID,0,VALID,88.0942,VALID,-0.0509425,VALID,19.728,VALID,126,VALID,1.72039,
2003-02-05, 03:07:00,VALID,917.988,VALID,0,VALID,88.1197,VALID,-0.0509425,VALID,19.7417,VALID,127,VALID,1.24695,
2003-02-05, 03:08:00,VALID,918,VALID,0,VALID,88.1718,VALID,-0.0849042,VALID,19.7417,VALID,129,VALID,1.40705,
2003-02-05, 03:09:00,VALID,918.012,VALID,0,VALID,88.2354,VALID,-0.0849042,VALID,19.7251,VALID,140,VALID,1.2484,
2003-02-05, 03:10:00,VALID,918.004,VALID,0,VALID,88.3536,VALID,-0.101885,VALID,19.7193,VALID,127,VALID,1.34354,
2003-02-05, 03:11:00,VALID,918.011,VALID,0,VALID,88.4172,VALID,-0.0339617,VALID,19.696,VALID,108,VALID,0.950391,
2003-02-05, 03:12:00,VALID,918.015,VALID,0,VALID,88.6003,VALID,-0.0679233,VALID,19.6833,VALID,116,VALID,0.940947,
2003-02-05, 03:13:00,VALID,918.008,VALID,0,VALID,88.7389,VALID,-0.0849042,VALID,19.6547,VALID,138,VALID,1.29941,
2003-02-05, 03:14:00,VALID,917.998,VALID,0,VALID,88.7593,VALID,-0.0509425,VALID,19.6251,VALID,138,VALID,1.39824,
2003-02-05, 03:15:00,VALID,918.003,VALID,0,VALID,88.6334,VALID,-0.0679233,VALID,19.6286,VALID,129,VALID,1.21443,
2003-02-05, 03:16:00,VALID,918,VALID,0,VALID,88.6817,VALID,-0.0509425,VALID,19.6278,VALID,138,VALID,1.42969,
2003-02-05, 03:17:00,VALID,917.982,VALID,0,VALID,88.683,VALID,-0.0509425,VALID,19.6413,VALID,140,VALID,1.89258,
2003-02-05, 03:18:00,VALID,917.963,VALID,0,VALID,88.6614,VALID,-0.101885,VALID,19.6609,VALID,143,VALID,1.26797,
2003-02-05, 03:19:00,VALID,917.957,VALID,0,VALID,88.7555,VALID,-0.0339617,VALID,19.6537,VALID,138,VALID,1.84155,
2003-02-05, 03:20:00,VALID,917.949,VALID,0,VALID,88.8674,VALID,-0.0169808,VALID,19.6475,VALID,150,VALID,1.54811,
2003-02-05, 03:21:00,VALID,917.961,VALID,0,VALID,89.0212,VALID,-0.0509425,VALID,19.6316,VALID,125,VALID,1.14002,
2003-02-05, 03:22:00,VALID,917.956,VALID,0,VALID,89.1738,VALID,-0.0339617,VALID,19.6057,VALID,121,VALID,1.04107,
2003-02-05, 03:23:00,VALID,917.97,VALID,0,VALID,89.2323,VALID,-0.0509425,VALID,19.5833,VALID,152,VALID,1.30954,
2003-02-05, 03:24:00,VALID,917.961,VALID,0,VALID,89.1865,VALID,-0.0679233,VALID,19.5508,VALID,141,VALID,1.41647,
2003-02-05, 03:25:00,VALID,917.976,VALID,0,VALID,89.1331,VALID,-0.0169808,VALID,19.5575,VALID,144,VALID,1.7615,
2003-02-05, 03:26:00,VALID,917.987,VALID,0,VALID,88.9398,VALID,-0.0509425,VALID,19.5769,VALID,138,VALID,1.63155,
2003-02-05, 03:27:00,VALID,918.004,VALID,0,VALID,88.9144,VALID,-0.0849042,VALID,19.5796,VALID,132,VALID,1.4418,
2003-02-05, 03:28:00,VALID,918.001,VALID,0,VALID,88.9335,VALID,-0.0509425,VALID,19.5933,VALID,141,VALID,0.963049,
2003-02-05, 03:29:00,VALID,917.992,VALID,0,VALID,89.0161,VALID,-0.0679233,VALID,19.593,VALID,130,VALID,1.29908,
2003-02-05, 03:30:00,VALID,918.004,VALID,0,VALID,89.1013,VALID,-0.101885,VALID,19.5672,VALID,136,VALID,1.06435,
2003-02-05, 03:31:00,VALID,917.992,VALID,0,VALID,89.0339,VALID,-0.0339617,VALID,19.5674,VALID,138,VALID,1.54478,
2003-02-05, 03:32:00,VALID,918.001,VALID,0,VALID,88.8661,VALID,-0.0169808,VALID,19.5577,VALID,121,VALID,1.44251,
2003-02-05, 03:33:00,VALID,917.973,VALID,0,VALID,88.6169,VALID,-0.0509425,VALID,19.5731,VALID,141,VALID,1.14949,